| time (UTC) | temp C | wind direction | speed KPH | gust KPH | rain 1hr cm | rain 24hr cm | rain mn cm | humidity % | barometer mb |
| 20260505051543 | 6 | 204 | 14.5 | 24.1 | 0.00 | 0.46 | 0.00 | 87 | 1006.6 |
| 20260505050124 | 6 | 209 | 16.1 | 22.5 | 0.00 | 0.46 | 0.00 | 88 | 1006.4 |
| 20260505041603 | 8 | 218 | 12.9 | 27.4 | 0.00 | 0.46 | 0.00 | 83 | 1005.8 |
| 20260505040056 | 6 | 0.0 | 0.0 | 0.00 | 0.46 | 0.00 | 85 | 1005.7 | |
| 20260505034545 | 7 | 0.0 | 0.0 | 0.00 | 0.46 | 0.00 | 85 | 1005.5 | |
| 20260505033049 | 7 | 0.0 | 0.0 | 0.00 | 0.46 | 0.00 | 82 | 1005.3 | |
| 20260505031549 | 8 | 0.0 | 0.0 | 0.00 | 0.46 | 0.00 | 76 | 1005.0 | |
| 20260505030048 | 10 | 0.0 | 0.0 | 0.00 | 0.46 | 0.00 | 76 | 1004.8 | |
| 20260505024548 | 9 | 0.0 | 0.0 | 0.00 | 0.46 | 0.46 | 78 | 1004.7 | |
| 20260505023048 | 7 | 0.0 | 0.0 | 0.00 | 0.46 | 0.46 | 85 | 1004.6 | |
| 20260505021545 | 6 | 0.0 | 0.0 | 0.00 | 0.46 | 0.46 | 85 | 1004.4 | |
| 20260505020049 | 7 | 0.0 | 0.0 | 0.00 | 0.46 | 0.46 | 84 | 1004.2 | |
| 20260505014604 | 7 | 0.0 | 0.0 | 0.00 | 0.46 | 0.46 | 83 | 1004.1 | |
| 20260505013050 | 7 | 0.0 | 0.0 | 0.00 | 0.46 | 0.46 | 82 | 1004.0 | |
| 20260505011544 | 6 | 0.0 | 0.0 | 0.00 | 0.46 | 0.46 | 81 | 1004.2 | |
| 20260505010043 | 7 | 0.0 | 0.0 | 0.00 | 0.46 | 0.46 | 77 | 1004.0 | |
| 20260505004545 | 10 | 0.0 | 0.0 | 0.00 | 0.53 | 0.46 | 73 | 1003.9 | |
| 20260505003050 | 10 | 0.0 | 0.0 | 0.00 | 0.53 | 0.46 | 72 | 1003.9 | |
| 20260505001603 | 10 | 0.0 | 0.0 | 0.00 | 0.53 | 0.46 | 72 | 1003.8 | |
| 20260505000107 | 10 | 0.0 | 0.0 | 0.00 | 0.53 | 0.46 | 70 | 1003.7 | |
| 20260504234611 | 11 | 0.0 | 0.0 | 0.00 | 0.74 | 0.46 | 64 | 1003.3 | |
| 20260504233045 | 11 | 0.0 | 0.0 | 0.00 | 0.74 | 0.46 | 53 | 1003.3 | |
| 20260504231550 | 11 | 0.0 | 0.0 | 0.00 | 0.74 | 0.46 | 59 | 1002.7 | |
| 20260504230050 | 11 | 0.0 | 0.0 | 0.00 | 0.74 | 0.46 | 61 | 1002.4 | |
| 20260504224604 | 11 | 0.0 | 0.0 | 0.00 | 0.74 | 0.46 | 59 | 1002.3 | |
| 20260504223047 | 11 | 0.0 | 0.0 | 0.00 | 0.74 | 0.46 | 58 | 1002.2 | |
| 20260504221552 | 12 | 0.0 | 0.0 | 0.00 | 0.74 | 0.46 | 57 | 1002.1 | |
| 20260504220058 | 12 | 0.0 | 0.0 | 0.00 | 0.74 | 0.46 | 57 | 1001.9 | |
| 20260504214546 | 12 | 0.0 | 0.0 | 0.00 | 0.74 | 0.46 | 56 | 1001.9 | |
| 20260504213119 | 12 | 0.0 | 0.0 | 0.00 | 0.74 | 0.46 | 57 | 1001.7 | |
| 20260504211547 | 12 | 0.0 | 0.0 | 0.00 | 0.74 | 0.46 | 55 | 1001.7 | |
| 20260504210049 | 12 | 0.0 | 0.0 | 0.00 | 0.74 | 0.46 | 55 | 1001.3 | |
| 20260504204552 | 12 | 0.0 | 0.0 | 0.00 | 0.74 | 0.46 | 54 | 1001.2 | |
| 20260504203112 | 12 | 0.0 | 0.0 | 0.00 | 0.74 | 0.46 | 53 | 1001.0 | |
| 20260504201551 | 12 | 27.4 | 29.0 | 0.00 | 0.74 | 0.46 | 56 | 1000.8 | |
| 20260504200052 | 11 | 248 | 25.7 | 51.5 | 0.00 | 0.74 | 0.46 | 58 | 1000.7 |
| 20260504194602 | 12 | 253 | 35.4 | 61.2 | 0.00 | 0.74 | 0.46 | 55 | 1000.4 |
| 20260504193056 | 12 | 258 | 30.6 | 69.2 | 0.00 | 0.74 | 0.46 | 55 | 1000.0 |
| 20260504191549 | 11 | 274 | 45.1 | 64.4 | 0.00 | 0.74 | 0.46 | 59 | 999.9 |
| 20260504190050 | 11 | 255 | 45.1 | 61.2 | 0.00 | 0.74 | 0.46 | 60 | 999.6 |
| 20260504184605 | 11 | 280 | 43.5 | 64.4 | 0.00 | 0.74 | 0.46 | 62 | 999.4 |
| 20260504183050 | 11 | 269 | 49.9 | 78.9 | 0.00 | 0.74 | 0.46 | 67 | 999.1 |
| 20260504181549 | 11 | 281 | 30.6 | 61.2 | 0.00 | 0.74 | 0.46 | 67 | 999.0 |
| 20260504180049 | 10 | 259 | 38.6 | 62.8 | 0.00 | 0.74 | 0.46 | 71 | 998.9 |
| 20260504174545 | 10 | 270 | 48.3 | 70.8 | 0.00 | 0.74 | 0.46 | 75 | 998.6 |
| 20260504173051 | 9 | 257 | 38.6 | 64.4 | 0.00 | 0.74 | 0.46 | 76 | 998.6 |
| 20260504171552 | 9 | 272 | 38.6 | 56.3 | 0.00 | 0.74 | 0.46 | 79 | 998.3 |
| 20260504090108 | -17 | 0.0 | 0.0 | 0.00 | 0.28 | 0.00 | 980.4 | ||
| 20260504081547 | -17 | 0.0 | 0.0 | 0.00 | 0.28 | 0.00 | 978.7 |